TIME,DELAY(SENSOR),PRES,T(CTD),SAL,OXYGEN,RAWTEMP,T(OPTODE),TCPHASE,FLUOR,BETA(BETA700),BETA(BETA412),BETA(BETA440),CDOM,C(CSC),ED(ED412.40),ED(ED444.00),ED(ED489.70),ED(ED554.30),LU(LU411.80),LU(LU443.40),LU(LU489.60),LU(LU554.10),COMP,TILTX,TILTX(TILTY),CHECK
1372110654,5808,496.8900146484375000,6.2371997833251950,34.1493988037109400,60.5621490478515600,611.1665039062500000,6.2229499816894530,51.4840812683105500,52,102,86,79,79,15348,2147748397,2147423570,2148009444,2147873243,2147631725,2147067913,2148246061,2147200246,1614,4,13,20128
1372110771,5807,485.4899902343750000,6.4461002349853520,34.1279983520507800,69.2310714721679700,604.8953247070312000,6.4260182380676270,50.2832489013671900,51,104,85,81,77,15350,2147748416,2147422674,2148008658,2147872283,2147632045,2147071725,2148249865,2147199588,262,4,12,28633
1372110886,5809,474.0899963378906000,6.5012001991271970,34.1190986633300800,75.1046218872070300,603.1712036132812000,6.4817771911621090,49.5372505187988300,51,103,88,80,78,15350,2147746368,2147424265,2148007021,2147873280,2147630912,2147070546,2148240045,2147200009,2464,4,13,40732
1372111001,5804,462.2799987792969000,6.6838998794555660,34.1001014709472660,83.2369003295898400,597.5410766601562000,6.6636681556701660,48.4972190856933600,52,105,83,79,78,15349,2147745499,2147424045,2148005888,2147874770,2147631798,2147069805,2148243108,2147197750,2801,4,13,38590
1372111120,5811,450.9899902343750000,6.8659000396728520,34.0934982299804700,91.6976165771484400,591.8209228515625000,6.8481640815734860,47.4592094421386700,51,102,88,80,77,15352,2147746368,2147425133,2148008109,2147871680,2147627309,2147070107,2148244854,2147197211,2811,4,13,29359
1372111247,5808,440.5000000000000000,6.9629998207092285,34.0899009704589840,97.6197662353515600,588.8444213867188000,6.9440441131591800,46.7744407653808600,51,107,87,80,76,15353,2147746368,2147423926,2148007616,2147871323,2147627995,2147072173,2148242185,2147202395,1972,4,13,25037
1372111376,5809,429.4400024414062500,7.0995998382568360,34.0876007080078100,102.0220031738281200,584.3933715820312000,7.0872712135314940,46.2407188415527340,51,103,85,78,77,15346,2147746240,2147428544,2148008347,2147876086,2147628187,2147073700,2148240941,2147203099,2442,4,13,60163
1372111515,5809,418.0799865722656000,7.3519001007080080,34.0807991027832000,108.5289993286132800,577.0250244140625000,7.3239769935607910,45.4530715942382800,51,105,89,78,75,15349,2147740964,2147425856,2148007552,2147873938,2147628214,2147071954,2148239460,2147199926,1449,4,13,29529
1372111654,5807,407.6799926757812500,7.4787998199462890,34.0808982849121100,116.6074981689453100,572.7877197265625000,7.4598770141601560,44.5894508361816400,50,105,86,80,76,15349,2147743332,2147424621,2148006765,2147873426,2147629586,2147077366,2148236918,2147203318,1562,4,13,46900
1372111800,5809,395.6300048828125000,7.5914998054504395,34.0852012634277340,119.9168014526367200,568.7114257812500000,7.5904669761657715,44.2023086547851560,50,105,88,79,75,15347,2147741010,2147424832,2148006326,2147874157,2147625060,2147081938,2148240137,2147200795,2137,3,12,29155
1372111927,5807,384.8900146484375000,7.7853999137878420,34.0872001647949200,124.3391036987304700,562.8114013671875000,7.7792210578918460,43.6888389587402340,51,105,85,80,75,15350,2147740489,2147424758,2148007021,2147873746,2147621723,2147082752,2148236864,2147201188,967,4,13,64193
1372112068,5809,373.3299865722656000,8.1941995620727540,34.0896987915039060,131.3285064697265600,550.0670166015625000,8.1859321594238280,42.8339118957519500,50,105,85,79,75,15346,2147741385,2147424685,2148006930,2147873673,2147619373,2147081014,2148229787,2147201261,794,4,13,43352
1372112207,5808,362.3699951171875000,8.4589004516601560,34.0924987792968750,143.3200073242187500,542.0659790039062000,8.4405803680419920,41.6538391113281250,50,104,86,79,74,15345,2147737819,2147426450,2148005714,2147875062,2147619565,2147083812,2148231643,2147200740,260,4,13,32616
1372112355,5808,350.2900085449219000,8.6408996582031250,34.0896987915039060,151.6199035644531200,536.0578002929688000,8.6314620971679690,40.8683509826660160,50,106,87,81,73,15345,2147738560,2147424850,2148008219,2147867721,2147618752,2147090898,2148233609,2147202148,35,4,13,5414
1372112473,5805,339.6099853515625000,8.8690996170043950,34.0887985229492200,162.5088043212890600,528.8585815429688000,8.8598098754882810,39.8919181823730500,50,106,88,80,74,15345,2147737417,2147424886,2148010569,2147873856,2147620918,2147088978,2148230372,2147204928,3349,4,13,19046
1372112612,5808,328.1700134277344000,9.3129997253417970,34.0956001281738300,174.1838989257812500,514.0255737304688000,9.3290443420410160,38.7775917053222660,50,106,83,80,72,15345,2147735259,2147425005,2148015085,2147873691,2147617728,2147093723,2148235126,2147202249,2238,4,13,9705
1372112754,5811,317.3399963378906000,9.8358001708984380,34.1052017211914060,186.4403076171875000,498.3131103515625000,9.8243436813354500,37.6646308898925800,50,107,87,80,71,15347,2147737344,2147429595,2148021796,2147869741,2147612900,2147096923,2148225380,2147207625,2017,4,13,139
1372112893,5809,306.2000122070312500,10.2981004714965820,34.1299018859863300,199.4566955566406200,483.5835876464844000,10.2871103286743160,36.5805587768554700,48,104,88,80,70,15345,2147734948,2147428772,2148022601,2147871049,2147613467,2147098962,2148228690,2147204242,1262,3,13,28579
1372113043,5809,291.6499938964844000,10.9365997314453120,34.1705017089843750,212.7154998779297000,463.2735900878906000,10.9228897094726560,35.4538688659668000,49,103,86,78,69,15350,2147728411,2147430701,2148033883,2147870153,2147608932,2147104941,2148236278,2147204342,2932,3,13,37275
1372113146,5806,279.9500122070312500,11.1464996337890620,34.1758995056152340,216.1080932617187500,456.4625854492187500,11.1355304718017580,35.1495513916015600,48,104,85,79,70,15342,2147730377,2147433243,2148045686,2147871131,2147609572,2147109330,2148233508,2147207899,2069,4,13,29736
1372113249,5808,268.4599914550781000,11.6138000488281250,34.1869010925293000,215.3936004638672000,441.2528991699219000,11.6094198226928710,34.9444999694824200,48,106,86,79,68,15343,2147729499,2147439314,2148061769,2147875474,2147604352,2147116772,2148238875,2147208740,2494,3,13,40830
1372113369,5810,257.9599914550781000,11.8699998855590820,34.2135009765625000,217.2133941650390600,432.9719848632812500,11.8668899536132810,34.7100906372070300,48,104,88,80,68,15344,2147730523,2147447104,2148089728,2147873645,2147602130,2147121929,2148252964,2147207332,917,3,14,4138
1372113532,5805,247.0099945068359400,12.3205003738403320,34.2411994934082000,221.1746063232422000,418.4431152343750000,12.3177700042724610,34.2622413635253900,48,106,85,80,69,15342,2147724077,2147458112,2148113014,2147872155,2147600457,2147129920,2148264438,2147212132,2401,4,14,8195
1372113689,5807,234.7200012207031200,12.9426002502441400,34.2630996704101560,219.7922973632812500,398.2976989746094000,12.9412698745727540,34.0246009826660160,48,106,87,80,68,15339,2147729069,2147472091,2148154340,2147873408,2147599954,2147146450,2148286692,2147213220,2483,3,13,54450
1372113804,5810,223.3699951171875000,13.3338003158569340,34.2314987182617200,198.7024993896484400,383.0159912109375000,13.4130496978759770,35.0081100463867200,49,109,86,80,68,15335,2147729097,2147493888,2148210642,2147874532,2147598902,2147155721,2148308571,2147214500,1617,3,14,12213
1372113921,5810,211.6100006103515600,14.1686000823974610,34.3291015625000000,207.3486938476562500,358.7897949218750000,14.1591100692749020,34.1219291687011700,49,107,86,80,67,15333,2147735369,2147544283,2148328640,2147874413,2147597732,2147183552,2148361920,2147220553,2135,3,14,42852
1372114024,5809,200.9700012207031200,14.8830003738403320,34.4166984558105500,211.8825988769531200,335.0418090820312500,14.8885498046875000,33.5069694519043000,49,105,87,79,65,15334,2147743945,2147600941,2148450240,2147874432,2147600649,2147219245,2148411373,2147223140,1261,2,13,9326
1372114079,5804,195.6900024414062500,15.4582996368408200,34.4861984252929700,217.2154998779297000,316.4771118164062500,15.4576902389526370,32.9387283325195300,49,104,87,80,64,15331,2147754422,2147658660,2148584457,2147873408,2147602422,2147260955,2148479250,2147227200,151,3,14,11265
1372114134,5810,190.5800018310547000,15.8253002166748050,34.5349006652832000,220.2537994384765600,305.3149108886719000,15.7995195388793950,32.6129989624023440,49,105,87,81,66,15329,2147765513,2147697700,2148659392,2147873865,2147606043,2147283858,2148510646,2147233005,3346,3,14,60038
1372114189,5806,185.7100067138672000,16.0671005249023440,34.5684013366699200,221.3553009033203000,296.8783874511719000,16.0577106475830080,32.4331512451171900,49,104,84,78,65,15333,2147769005,2147707940,2148654171,2147873435,2147604388,2147300306,2148505353,2147235053,3255,3,13,18472
1372114265,5809,179.6799926757812500,16.2598991394042970,34.5960998535156250,221.6192932128906200,290.2958068847656000,16.2590694427490230,32.3246803283691400,50,109,88,81,65,15329,2147798765,2147807277,2148854866,2147874157,2147613504,2147363081,2148609353,2147237056,3084,2,14,8802
1372114320,5811,175.9700012207031200,16.4032001495361330,34.6170997619628900,221.5932006835937500,285.9689025878906000,16.3913993835449220,32.2645797729492200,49,106,87,80,65,15331,2147812544,2147845403,2148905856,2147875328,2147618678,2147386806,2148632640,2147241993,2339,2,14,10105
1372114387,5808,172.0000000000000000,17.1828994750976560,34.6995010375976560,219.8285980224609400,261.5656127929687500,17.1372509002685550,32.0128288269043000,52,107,90,80,63,15322,2147842916,2147937106,2149083830,2147877988,2147628169,2147440475,2148719012,2147252105,1903,3,14,57731
1372114454,5808,168.8000030517578000,17.4134998321533200,34.7235984802246100,219.8049926757812500,251.9143981933593800,17.4320697784423830,31.8789691925048830,53,105,88,80,64,15321,2147881005,2148038930,2149271862,2147877851,2147644452,2147508489,2148812580,2147254262,1155,2,15,12217
1372114547,5809,165.0299987792968800,17.7598991394042970,34.7621994018554700,218.8618927001953000,241.8312988281250000,17.7400302886962900,31.7884407043457030,58,107,86,81,64,15320,2147888192,2148038418,2149248987,2147877668,2147647744,2147508553,2148793462,2147256128,511,3,14,12128
1372114662,5806,160.5599975585937500,18.1170997619628900,34.8146018981933600,218.7472991943359400,230.3070068359375000,18.0919609069824220,31.6347694396972660,60,110,89,81,62,15311,2147930368,2148136585,2149428854,2147881453,2147661275,2147570596,2148875547,2147261933,3056,3,15,24519
1372114753,5809,157.0700073242187500,18.4692993164062500,34.8596000671386700,218.3173065185547000,218.1116027832031200,18.4643898010253900,31.4895591735839840,69,111,86,81,63,15305,2147978020,2148246875,2149615771,2147882331,2147681124,2147630061,2148970075,2147272850,2074,2,15,64970
1372114876,5806,152.2799987792968800,19.0571994781494140,34.9441986083984400,218.9579925537109400,200.1614074707031200,19.0126495361328120,31.2110195159912100,71,121,87,83,64,15297,2148187712,2148788662,2150647707,2147889170,2147763712,2147942683,2149450057,2147303286,1031,2,15,20371
1372114955,5807,148.6100006103515600,19.2703990936279300,34.9788017272949200,220.5565032958984400,192.2109069824218800,19.2555599212646500,31.0201892852783200,77,118,89,82,62,15292,2148268434,2148939136,2150896091,2147893650,2147801042,2148027209,2149554861,2147310729,1294,3,15,29645
1372115046,5807,144.8099975585937500,19.6462993621826170,35.0322990417480500,220.9799041748047000,180.4373016357422000,19.6153793334960940,30.8398208618164060,83,120,90,83,63,15281,2148440402,2149300964,2151555739,2147899346,2147873718,2148239597,2149846198,2147331803,513,2,15,61186
1372115163,5810,141.1000061035156200,19.9076995849609380,35.0806007385253900,223.7588043212890600,171.2281951904297000,19.8969497680664060,30.5751800537109380,85,120,89,81,63,15278,2148605485,2149594669,2152048758,2147908534,2147951890,2148411730,2150084214,2147352978,3398,2,15,12934
1372115290,5808,136.9400024414062500,20.2220001220703120,35.1323013305664060,225.0563049316406200,162.0234985351562500,20.1785106658935550,30.3875808715820300,92,120,91,83,61,15268,2148797714,2149874898,2152460800,2147919049,2148047899,2148587556,2150274642,2147370057,2395,3,15,44764
1372115405,5812,133.1000061035156200,20.5498008728027340,35.1926994323730500,226.3135070800781200,150.3984069824218800,20.5343208312988280,30.1714191436767580,105,125,88,84,61,15254,2149000018,2150187922,2152862656,2147926747,2148145883,2148743588,2150412233,2147381531,2934,2,15,9919
1372115508,5808,128.1799926757812500,20.6215991973876950,35.1716003417968750,228.7380981445312500,147.7292938232422000,20.6160507202148440,30.0169296264648440,112,133,87,84,61,15234,2149595190,2151214390,2154452854,2147954816,2148411748,2149248667,2151037796,2147436086,2956,2,15,31467
1372115575,5811,124.3700027465820300,20.6446990966796880,35.1683998107910160,229.2230072021484400,146.9248962402343800,20.6406803131103500,29.9829902648925780,121,129,91,84,60,15230,2150082980,2151977865,2155552493,2147976320,2148607808,2149595099,2151466496,2147468361,2345,2,16,53690
1372115642,5811,120.6299972534179700,20.8155994415283200,35.1734008789062500,229.4234924316406200,142.0072021484375000,20.7913093566894530,29.9086799621582030,126,133,90,84,61,15207,2150847515,2153218048,2157393161,2148010249,2148910582,2150143360,2152182464,2147530139,1895,2,15,5446
1372115733,5809,116.5000000000000000,21.0154991149902340,35.2256011962890600,230.5632019042968800,134.9571990966797000,21.0073604583740230,29.7617607116699220,132,131,89,84,61,15205,2151743414,2154597339,2159322989,2148055350,2149270528,2150703158,2152879533,2147599268,982,2,15,50437
1372115826,5810,112.9599990844726600,21.1973991394042970,35.2557983398437500,231.3309936523437500,129.1701049804687500,21.1847896575927730,29.6494998931884770,136,140,88,83,61,15191,2152950948,2156454637,2161890194,2148119643,2149774189,2151499702,2153834395,2147684891,197,2,15,26404
1372115953,5808,109.1999969482421900,21.2866001129150400,35.2402992248535160,233.0227050781250000,126.0434036254882800,21.2806892395019530,29.5282897949218750,151,132,89,83,59,15174,2155010038,2159439433,2165587465,2148205156,2150531712,2152602898,2155051748,2147811520,2515,2,15,36867
1372116116,5809,103.3099975585937500,21.4892005920410160,35.2044982910156250,237.2622070312500000,119.3076019287109400,21.4873695373535160,29.2422409057617200,160,137,89,83,59,15151,2159844736,2166080512,2173036470,2148400420,2152176237,2154991734,2157680000,2148078299,1522,2,15,22065
1372116183,5808,99.2600021362304700,21.5732002258300780,35.2075004577636700,238.7501983642578000,116.6165008544921900,21.5699806213378900,29.1388797760009770,159,135,91,86,61,15147,2163066660,2170326390,2177465014,2148559222,2153312128,2156564425,2159305270,2148253028,527,2,15,54916
1372116238,5811,95.8300018310546900,21.6096000671386720,35.2041015625000000,239.6905975341797000,114.8803024291992200,21.6232891082763670,29.0735702514648440,152,133,92,85,59,15142,2167100589,2175781522,2183414957,2148777206,2154792850,2158668982,2161502674,2148492964,3280,1,15,57750
1372116293,5809,92.5999984741211000,21.8008003234863280,35.1916999816894500,240.4649047851562500,109.6975021362304700,21.7824802398681640,28.9720897674560550,108,129,92,86,61,15170,2170860059,2180504155,2188245449,2148996022,2156343369,2160809764,2163598857,2148726820,2876,2,15,53798
1372116348,5805,90.0000000000000000,21.9888000488281250,35.2030982971191400,241.1602020263672000,103.6419982910156200,21.9685802459716800,28.8633098602294920,95,125,89,84,61,15181,2173453540,2183341056,2190639826,2149150656,2157687058,2162589970,2165175478,2148887204,2946,2,15,26390
1372116406,5807,87.8899993896484400,22.0813007354736330,35.2186012268066400,241.9129028320312500,100.2488021850586000,22.0729103088378900,28.7863006591796880,90,124,91,84,58,15196,2177387776,2187974080,2195184374,2149387346,2159685376,2165316077,2167642304,2149146057,2433,2,16,61341
1372116461,5807,86.2099990844726600,22.2080993652343750,35.2009010314941400,242.4873046875000000,96.3460769653320300,22.1929492950439450,28.7110996246337900,84,126,89,85,58,15193,2180675090,2191882468,2199128374,2149576795,2161322770,2167480448,2169455588,2149341714,2220,1,16,42933
1372116540,5802,84.4400024414062500,22.3243999481201170,35.2251014709472660,243.0173950195312500,91.6796875000000000,22.3365497589111330,28.6282291412353500,80,124,94,86,60,15180,2184456795,2195741394,2202341769,2149793664,2163596882,2170403456,2171860480,2149584603,1584,2,16,11707
1372116631,5804,82.2799987792968800,22.4498004913330080,35.2207984924316400,243.7774963378906200,88.8022308349609400,22.4251403808593750,28.5580196380615230,75,126,93,84,60,15201,2189408905,2201192557,2207464950,2150114797,2166366144,2173844699,2174593152,2149867008,1604,2,15,42480
1372116734,5804,78.5000000000000000,22.4892005920410160,35.2024993896484400,244.4029998779297000,86.8848495483398400,22.4841899871826170,28.5059700012207030,74,126,88,85,57,15178,2199277677,2211930505,2217669833,2150928557,2171996937,2180687990,2180196187,2150503451,2195,2,16,38749
1372116789,5810,75.2900009155273400,22.6989994049072270,35.2214012145996100,244.8233947753906200,80.4807434082031200,22.6815109252929700,28.4070205688476560,72,123,90,83,59,15177,2206963766,2219941220,2225406628,2151777298,2176715273,2186172224,2184509568,2151020397,2556,1,15,8346
1372116844,5814,72.0400009155273400,22.7658004760742200,35.2312011718750000,245.7682952880859400,77.5874633789062500,22.7707099914550780,28.3289299011230470,72,123,90,84,59,15193,2215224612,2227922395,2232383149,2152612644,2181617691,2191646491,2188664265,2151573083,1896,1,16,17966
1372116899,5808,68.8199996948242200,22.9116992950439450,35.2635002136230500,246.3659057617187500,72.5981826782226600,22.9246006011962900,28.2404193878173830,69,121,91,83,59,15198,2224679177,2237656969,2241986944,2153915245,2187826587,2198743954,2194278098,2152284818,1491,1,16,40640
1372116954,5806,65.9100036621093800,23.1504993438720700,35.2374000549316400,247.4626007080078000,66.3081588745117200,23.1187496185302730,28.1139793395996100,68,121,91,85,58,15192,2233190573,2246317330,2250297892,2155043145,2193941924,2205471241,2199415716,2152963556,1482,2,15,12055
1372117012,5807,64.0000000000000000,23.1581001281738280,35.2242012023925800,248.3067932128906200,65.0152816772461000,23.1586799621582030,28.0611190795898440,69,121,91,85,56,15188,2240727689,2254681938,2258665435,2156151616,2198535414,2210269814,2202677302,2153430976,2190,2,16,11285
1372117091,5807,62.5999984741210940,23.1518993377685550,35.2167015075683600,248.5059051513672000,64.4517364501953100,23.1760902404785160,28.0455207824707030,68,122,92,84,59,15192,2244808438,2257752201,2260311872,2156528740,2202599478,2214355181,2205421366,2153751890,2425,2,16,56815
1372117338,5812,60.4700012207031250,23.3448009490966800,35.1866989135742200,249.2187042236328000,58.9003181457519500,23.3476200103759770,27.9459209442138670,63,122,93,84,56,15179,2256745179,2267455451,2267699520,2157936758,2214446198,2226139172,2212955456,2154596416,3415,1,16,6095
1372117393,5805,58.7299995422363300,23.4624996185302730,35.1781997680664060,249.3556976318359400,55.0221710205078100,23.4675407409667970,27.8920707702636720,63,123,94,86,56,15172,2259041920,2268185170,2266944950,2158440201,2218368521,2229234651,2214178998,2154926729,2832,1,16,7763
1372117448,5809,56.8499984741210940,23.6210002899169920,35.1949005126953100,249.6504058837890600,50.5296516418457000,23.6065292358398440,27.8237800598144530,62,124,91,85,56,15172,2270025856,2279515538,2278441673,2160438427,2227216292,2238593161,2220973778,2155823707,2287,2,16,53197
1372117503,5805,55.0000000000000000,23.8435993194580080,35.2262001037597660,250.0169067382812500,44.6281089782714840,23.7892704010009770,27.7353096008300780,61,123,91,84,56,15168,2283825435,2293315392,2292196864,2163008256,2237449865,2249234998,2228693330,2156984777,1867,1,16,52532
1372117558,5811,53.0999984741210940,23.9407997131347660,35.2411003112793000,250.4320983886718800,42.0300483703613300,23.8697605133056640,27.6855297088623050,60,124,92,84,55,15165,2293093787,2302927085,2301847049,2165011922,2245415753,2257412452,2234633170,2157923812,1950,1,16,6916
1372117637,5808,49.7200012207031250,24.0044002532959000,35.2462997436523440,251.4297027587890600,37.7324600219726560,24.0029907226562500,27.5902805328369140,59,119,90,84,55,15166,2293143168,2300059465,2297310235,2167273947,2253081947,2262872237,2237364873,2158699072,2585,1,16,31859
1372117692,5806,46.7900009155273440,24.1502990722656250,35.2411994934082000,251.2274017333984400,33.1516189575195300,24.1450996398925780,27.5426101684570300,59,123,90,84,55,15159,2312915419,2320144292,2318147117,2172632320,2267578605,2276507675,2246423149,2160555885,2164,1,16,62826
1372117747,5807,44.1800003051757800,24.2535991668701170,35.2644004821777340,251.1894073486328000,29.4570903778076170,24.2597808837890620,27.4989700317382800,58,123,95,86,56,15166,2332088658,2339336630,2337155638,2178366418,2285539410,2293794258,2258183277,2162548315,2181,1,16,32516
1372117802,5808,42.1300010681152340,24.4993000030517580,35.2509002685546900,250.7384948730468800,21.7044391632080080,24.5006809234619140,27.4232196807861330,59,123,89,84,55,15158,2353142153,2359752009,2356474441,2184003510,2308354550,2316216886,2274123181,2165149860,2216,2,16,33113
1372117857,5807,40.9099998474121100,24.6534004211425780,35.2281990051269500,250.0814971923828000,17.3082008361816400,24.6374206542968750,27.3975105285644530,58,120,91,86,53,15167,2361136804,2367015387,2363205284,2187021403,2319926692,2326855533,2281282212,2166690605,2082,1,16,45250
1372117984,5805,39.6100006103515600,25.5279006958007800,35.2715988159179700,244.5424041748047000,-8.2772340774536130,25.4354190826416000,27.3227806091308600,55,121,92,85,55,15155,2346186166,2349242834,2344022692,2184849325,2308142235,2310113444,2266046500,2164136603,534,1,15,32371
1372118278,5806,36.5999984741210940,25.9167003631591800,35.2966003417968750,238.9900054931640600,-23.5847492218017580,25.9147396087646500,27.3795204162597660,55,119,91,84,57,15145,2390980854,2396813120,2392753664,2201699529,2360156580,2359993810,2301093613,2171002834,3110,1,16,58028
1372118333,5809,34.4300003051757800,26.1053009033203120,35.3274993896484400,237.0554962158203000,-29.2880306243896500,26.0937099456787100,27.3958606719970700,55,117,91,83,55,15168,2398387401,2401681718,2397499693,2206640731,2373959241,2372865874,2309815369,2172706258,385,2,16,29107
1372118388,5809,32.9000015258789060,26.1364002227783200,35.3272018432617200,236.1307983398437500,-31.1058902740478500,26.1508007049560550,27.4151096343994140,55,119,89,83,57,15165,2402944512,2406828690,2402362011,2210698733,2386028507,2383262674,2316573595,2174033865,3483,2,16,40554
1372118455,5809,31.5100002288818360,26.2378005981445300,35.3452987670898440,234.8576049804687500,-34.2810401916503900,26.2505702972412100,27.4335002899169920,53,116,90,84,56,15170,2401084050,2403856630,2399637129,2214157494,2392280036,2388056429,2319656822,2175502061,3476,2,16,63263
1372118569,5806,28.9899997711181640,26.2929992675781250,35.3585014343261700,233.4987945556640600,-35.9380111694335940,26.3026599884033200,27.4747295379638670,54,118,91,82,55,15156,2424120987,2429222482,2427140397,2230938148,2424465901,2415611565,2336294363,2179726491,3266,1,17,8512
1372118624,5808,26.8400001525878900,26.3006992340087900,35.3610992431640600,232.9568939208984400,-36.3006095886230500,26.3140602111816400,27.4951400756835940,52,118,93,83,56,15146,2445862619,2452333110,2451421659,2243024649,2459619053,2446041371,2355805110,2184868800,3043,3,16,5805
1372118679,5809,24.4699993133544920,26.3174991607666000,35.3632011413574200,232.7689056396484400,-36.8479194641113300,26.3312702178955080,27.4968891143798830,53,116,91,83,57,15158,2471429769,2480482578,2483904283,2270396224,2486413760,2468404388,2369351003,2190320283,2784,1,17,12398
